Wahpeton, MN

10:50 PM CST on November 18, 2019 (GMT -0600)
Stern

Weather History for KBWP - September, 2019

Change the Weather History Date:

Wednesday, September 25, 2019

  Actual Average (KFFM) Record (KFFM)
Temperature  
Mean Temperature 55 °F -  
Max Temperature 64 °F 66 °F 84 °F (1990)
Min Temperature 46 °F 43 °F 26 °F (1965)
Degree Days  
Heating Degree Days 10    
Growing Degree Days 5 (Base 50)    
Moisture  
Dew Point 41 °F    
Average Humidity 63    
Maximum Humidity 93    
Minimum Humidity 32    
Precipitation  
Precipitation 0.00 in - - ()
Sea Level Pressure  
Sea Level Pressure 29.77 in    
Wind  
Wind Speed 13 mph ()    
Max Wind Speed 28 mph    
Max Gust Speed 33 mph    
Visibility 10.0 miles    
Events      
Averages and records for this station are not official NWS values.
T = Trace of Precipitation, MM = Missing Value Source: Averaged Metar Reports

Daily Weather History Graph

Daily Weather History Graph

Search for Another Location

Airport or City:

Astronomy

Sep. 25, 2019 Rise Set
Actual Time 7:16 AM CDT 7:18 PM CDT
Civil Twilight 6:47 AM CDT 7:48 PM CDT
Nautical Twilight 6:11 AM CDT 8:23 PM CDT
Astronomical Twilight 5:35 AM CDT 8:59 PM CDT
Moon 2:53 AM CDT (9/25) 6:06 PM CDT (9/25)
Length of Visible Light 13h 01m
Length of Day
12h 01m
Waning Crescent, 14% of the Moon is Illuminated
Sep 25
Waning Crescent
Sep 28
New
Oct 5
First Quarter
Oct 13
Full
Oct 21
Last Quarter

Hourly Weather History & Observations

Time (CDT) Temp. Windchill Dew Point Humidity Pressure Visibility Wind Dir Wind Speed Gust Speed Precip Events Conditions
12:15 AM 59.0 °F - 46.4 °F 63% 29.61 in 10.0 mi WNW 16.1 mph 19.6 mph N/A   Unknown
12:35 AM 59.0 °F - 46.4 °F 63% 29.62 in 10.0 mi NW 15.0 mph 19.6 mph N/A   Unknown
12:55 AM 59.0 °F - 46.4 °F 63% 29.63 in 10.0 mi NW 16.1 mph - N/A   Unknown
1:15 AM 57.2 °F - 46.4 °F 67% 29.64 in 10.0 mi NW 11.5 mph - N/A   Unknown
1:35 AM 55.4 °F - 46.4 °F 72% 29.65 in 10.0 mi NW 10.4 mph - N/A   Unknown
1:55 AM 55.4 °F - 46.4 °F 72% 29.67 in 10.0 mi WNW 9.2 mph - N/A   Unknown
2:15 AM 53.6 °F - 46.4 °F 77% 29.66 in 10.0 mi WNW 6.9 mph - N/A   Unknown
2:35 AM 51.8 °F - 46.4 °F 82% 29.67 in 10.0 mi West 10.4 mph - N/A   Unknown
2:55 AM 51.8 °F - 46.4 °F 82% 29.69 in 10.0 mi WNW 12.7 mph - N/A   Unknown
3:15 AM 51.8 °F - 46.4 °F 82% 29.68 in 10.0 mi WNW 10.4 mph - N/A   Unknown
3:35 AM 51.8 °F - 46.4 °F 82% 29.69 in 10.0 mi WNW 11.5 mph - N/A   Unknown
3:55 AM 51.8 °F - 46.4 °F 82% 29.70 in 10.0 mi WNW 10.4 mph - N/A   Unknown
4:15 AM 50.0 °F - 44.6 °F 82% 29.70 in 10.0 mi West 9.2 mph - N/A   Unknown
4:35 AM 50.0 °F - 44.6 °F 82% 29.71 in 10.0 mi West 9.2 mph - N/A   Unknown
4:55 AM 50.0 °F - 44.6 °F 82% 29.72 in 10.0 mi West 8.1 mph - N/A   Unknown
5:15 AM 48.2 °F - 44.6 °F 87% 29.72 in 10.0 mi West 6.9 mph - N/A   Unknown
5:35 AM 48.2 °F - 44.6 °F 87% 29.73 in 10.0 mi West 6.9 mph - N/A   Unknown
5:55 AM 48.2 °F - 44.6 °F 87% 29.74 in 10.0 mi West 8.1 mph - N/A   Unknown
6:15 AM 46.4 °F 42.4 °F 44.6 °F 93% 29.74 in 10.0 mi West 8.1 mph - N/A   Unknown
6:35 AM 46.4 °F 42.4 °F 42.8 °F 87% 29.75 in 10.0 mi West 8.1 mph - N/A   Unknown
6:55 AM 46.4 °F 42.9 °F 42.8 °F 87% 29.75 in 10.0 mi WSW 6.9 mph - N/A   Unknown
7:15 AM 46.4 °F 42.4 °F 42.8 °F 87% 29.75 in 10.0 mi West 8.1 mph - N/A   Unknown
7:35 AM 46.4 °F 41.9 °F 42.8 °F 87% 29.76 in 10.0 mi West 9.2 mph - N/A   Unknown
7:55 AM 48.2 °F - 44.6 °F 87% 29.76 in 10.0 mi West 9.2 mph - N/A   Unknown
8:15 AM 50.0 °F - 44.6 °F 82% 29.77 in 10.0 mi WNW 12.7 mph - N/A   Unknown
8:35 AM 51.8 °F - 44.6 °F 76% 29.77 in 10.0 mi West 13.8 mph - N/A   Unknown
8:55 AM 51.8 °F - 44.6 °F 76% 29.78 in 10.0 mi West 13.8 mph - N/A   Unknown
9:15 AM 53.6 °F - 44.6 °F 72% 29.78 in 10.0 mi West 13.8 mph 20.7 mph N/A   Unknown
9:35 AM 53.6 °F - 44.6 °F 72% 29.78 in 10.0 mi WNW 17.3 mph 24.2 mph N/A   Unknown
9:55 AM 55.4 °F - 42.8 °F 63% 29.79 in 10.0 mi West 20.7 mph - N/A   Unknown
10:15 AM 55.4 °F - 42.8 °F 63% 29.79 in 10.0 mi West 17.3 mph 26.5 mph N/A   Unknown
10:35 AM 57.2 °F - 42.8 °F 59% 29.79 in 10.0 mi WNW 20.7 mph - N/A   Unknown
10:55 AM 59.0 °F - 42.8 °F 55% 29.79 in 10.0 mi WNW 24.2 mph 27.6 mph N/A   Unknown
11:15 AM 59.0 °F - 42.8 °F 55% 29.79 in 10.0 mi West 19.6 mph 24.2 mph N/A   Unknown
11:35 AM 60.8 °F - 42.8 °F 52% 29.79 in 10.0 mi West 23.0 mph 26.5 mph N/A   Unknown
11:55 AM 60.8 °F - 42.8 °F 52% 29.79 in 10.0 mi West 21.9 mph 29.9 mph N/A   Unknown
12:15 PM 62.6 °F - 41.0 °F 45% 29.79 in 10.0 mi WNW 21.9 mph 32.2 mph N/A   Unknown
12:35 PM 62.6 °F - 41.0 °F 45% 29.79 in 10.0 mi WNW 23.0 mph 29.9 mph N/A   Unknown
12:55 PM 62.6 °F - 41.0 °F 45% 29.79 in 10.0 mi WNW 21.9 mph 29.9 mph N/A   Unknown
1:15 PM 62.6 °F - 41.0 °F 45% 29.78 in 10.0 mi WNW 26.5 mph 32.2 mph N/A   Unknown
1:35 PM 62.6 °F - 41.0 °F 45% 29.78 in 10.0 mi NW 19.6 mph 32.2 mph N/A   Unknown
1:55 PM 62.6 °F - 39.2 °F 42% 29.78 in 10.0 mi WNW 25.3 mph 32.2 mph N/A   Unknown
2:15 PM 62.6 °F - 37.4 °F 39% 29.78 in 10.0 mi NW 20.7 mph - N/A   Unknown
2:35 PM 60.8 °F - 37.4 °F 42% 29.79 in 10.0 mi WNW 20.7 mph 25.3 mph N/A   Unknown
2:55 PM 62.6 °F - 37.4 °F 39% 29.78 in 10.0 mi West 23.0 mph 28.8 mph N/A   Unknown
3:15 PM 64.4 °F - 35.6 °F 34% 29.78 in 10.0 mi WNW 21.9 mph 28.8 mph N/A   Unknown
3:35 PM 62.6 °F - 33.8 °F 34% 29.79 in 10.0 mi WNW 24.2 mph 31.1 mph N/A   Unknown
3:55 PM 62.6 °F - 33.8 °F 34% 29.79 in 10.0 mi NW 19.6 mph 25.3 mph N/A   Unknown
4:15 PM 64.4 °F - 33.8 °F 32% 29.79 in 10.0 mi NW 18.4 mph 25.3 mph N/A   Unknown
4:35 PM 62.6 °F - 32.0 °F 32% 29.79 in 10.0 mi WNW 27.6 mph 33.4 mph N/A   Unknown
5:15 PM 60.8 °F - 33.8 °F 36% 29.80 in 10.0 mi WNW 20.7 mph 26.5 mph N/A   Unknown
5:35 PM 62.6 °F - 33.8 °F 34% 29.80 in 10.0 mi WNW 23.0 mph 32.2 mph N/A   Unknown
5:55 PM 62.6 °F - 33.8 °F 34% 29.80 in 10.0 mi WNW 18.4 mph 26.5 mph N/A   Unknown
6:15 PM 60.8 °F - 35.6 °F 39% 29.81 in 10.0 mi NW 11.5 mph - N/A   Unknown
6:35 PM 60.8 °F - 33.8 °F 36% 29.81 in 10.0 mi NW 15.0 mph 25.3 mph N/A   Unknown
6:55 PM 59.0 °F - 35.6 °F 42% 29.82 in 10.0 mi NW 9.2 mph - N/A   Unknown
7:15 PM 57.2 °F - 35.6 °F 44% 29.83 in 10.0 mi WNW 11.5 mph - N/A   Unknown
7:35 PM 53.6 °F - 35.6 °F 51% 29.83 in 10.0 mi WNW 8.1 mph - N/A   Unknown
7:55 PM 53.6 °F - 35.6 °F 51% 29.84 in 10.0 mi WNW 8.1 mph - N/A   Unknown
8:15 PM 51.8 °F - 37.4 °F 58% 29.85 in 10.0 mi West 9.2 mph - N/A   Unknown
8:35 PM 50.0 °F - 37.4 °F 62% 29.85 in 10.0 mi West 8.1 mph - N/A   Unknown
8:55 PM 46.4 °F 42.9 °F 37.4 °F 71% 29.85 in 10.0 mi West 6.9 mph - N/A   Unknown
9:15 PM 46.4 °F 41.9 °F 37.4 °F 71% 29.87 in 10.0 mi West 9.2 mph - N/A   Unknown
9:35 PM 46.4 °F 42.4 °F 37.4 °F 71% 29.87 in 10.0 mi West 8.1 mph - N/A   Unknown
9:55 PM 46.4 °F 41.9 °F 37.4 °F 71% 29.87 in 10.0 mi West 9.2 mph - N/A   Unknown
10:15 PM 48.2 °F - 37.4 °F 66% 29.87 in 10.0 mi West 8.1 mph - N/A   Unknown
10:35 PM 46.4 °F 42.4 °F 37.4 °F 71% 29.87 in 10.0 mi West 8.1 mph - N/A   Unknown
10:55 PM 48.2 °F - 39.2 °F 71% 29.88 in 10.0 mi West 12.7 mph 19.6 mph N/A   Unknown
11:15 PM 48.2 °F - 39.2 °F 71% 29.88 in 10.0 mi West 10.4 mph - N/A   Unknown
11:35 PM 46.4 °F 42.9 °F 39.2 °F 76% 29.88 in 10.0 mi West 6.9 mph - N/A   Unknown
11:55 PM 46.4 °F 42.4 °F 39.2 °F 76% 29.88 in 10.0 mi West 8.1 mph - N/A   Unknown